Time,TemperatureF,DewpointF,PressureIn,WindDirection,WindDirectionDegrees,WindSpeedMPH,WindSpeedGustMPH,Humidity,HourlyPrecipIn,Conditions,Clouds,dailyrainin,SoftwareType,DateUTC
2015-07-06 00:03:00,55.0,46.0,-100.00,NE,52,9.0,13.0,72,-99.99,,,-99.99,,2015-07-06 06:03:00,
2015-07-06 00:13:00,55.0,46.0,-100.00,NE,52,9.0,13.0,72,-99.99,,,-99.99,,2015-07-06 06:13:00,
2015-07-06 00:21:00,53.0,47.0,-100.00,NNE,31,10.0,16.0,79,-99.99,,,-99.99,,2015-07-06 06:21:00,
2015-07-06 00:44:00,53.0,47.0,-100.00,NNE,31,10.0,16.0,79,-99.99,,,-99.99,,2015-07-06 06:44:00,
2015-07-06 00:54:00,53.0,47.0,-100.00,NNE,31,10.0,16.0,79,-99.99,,,-99.99,,2015-07-06 06:54:00,
2015-07-06 01:03:00,53.0,47.0,-100.00,NNE,31,10.0,16.0,79,-99.99,,,-99.99,,2015-07-06 07:03:00,
2015-07-06 01:12:00,53.0,47.0,-100.00,NNE,31,10.0,16.0,79,-99.99,,,-99.99,,2015-07-06 07:12:00,
2015-07-06 01:21:00,53.0,48.0,-100.00,NE,42,7.0,17.0,82,-99.99,,,-99.99,,2015-07-06 07:21:00,
2015-07-06 01:44:00,53.0,48.0,-100.00,NE,42,7.0,17.0,82,-99.99,,,-99.99,,2015-07-06 07:44:00,
2015-07-06 01:53:00,53.0,48.0,-100.00,NE,42,7.0,17.0,82,-99.99,,,-99.99,,2015-07-06 07:53:00,
2015-07-06 02:03:00,53.0,48.0,-100.00,NE,42,7.0,17.0,82,-99.99,,,-99.99,,2015-07-06 08:03:00,
2015-07-06 02:12:00,53.0,48.0,-100.00,NE,42,7.0,17.0,82,-99.99,,,-99.99,,2015-07-06 08:12:00,
2015-07-06 02:21:00,53.0,48.0,-100.00,NE,37,9.0,13.0,82,-99.99,,,-99.99,,2015-07-06 08:21:00,
2015-07-06 02:43:00,53.0,48.0,-100.00,NE,37,9.0,13.0,82,-99.99,,,-99.99,,2015-07-06 08:43:00,
2015-07-06 02:53:00,53.0,48.0,-100.00,NE,37,9.0,13.0,82,-99.99,,,-99.99,,2015-07-06 08:53:00,
2015-07-06 03:03:00,53.0,48.0,-100.00,NE,37,9.0,13.0,82,-99.99,,,-99.99,,2015-07-06 09:03:00,
2015-07-06 03:12:00,53.0,48.0,-100.00,NE,37,9.0,13.0,82,-99.99,,,-99.99,,2015-07-06 09:12:00,
2015-07-06 03:21:00,52.0,47.0,-100.00,NE,37,8.0,14.0,82,-99.99,,,-99.99,,2015-07-06 09:21:00,
2015-07-06 03:44:00,52.0,47.0,-100.00,NE,37,8.0,14.0,82,-99.99,,,-99.99,,2015-07-06 09:44:00,
2015-07-06 03:53:00,52.0,47.0,-100.00,NE,37,8.0,14.0,82,-99.99,,,-99.99,,2015-07-06 09:53:00,
2015-07-06 04:03:00,52.0,47.0,-100.00,NE,37,8.0,14.0,82,-99.99,,,-99.99,,2015-07-06 10:03:00,
2015-07-06 04:13:00,52.0,47.0,-100.00,NE,37,8.0,14.0,82,-99.99,,,-99.99,,2015-07-06 10:13:00,
2015-07-06 04:21:00,52.0,47.0,-100.00,NE,51,6.0,12.0,84,-99.99,,,-99.99,,2015-07-06 10:21:00,
2015-07-06 04:44:00,52.0,47.0,-100.00,NE,51,6.0,12.0,84,-99.99,,,-99.99,,2015-07-06 10:44:00,
2015-07-06 04:54:00,52.0,47.0,-100.00,NE,51,6.0,12.0,84,-99.99,,,-99.99,,2015-07-06 10:54:00,
2015-07-06 05:03:00,52.0,47.0,-100.00,NE,51,6.0,12.0,84,-99.99,,,-99.99,,2015-07-06 11:03:00,
2015-07-06 05:13:00,52.0,47.0,-100.00,NE,51,6.0,12.0,84,-99.99,,,-99.99,,2015-07-06 11:13:00,
2015-07-06 05:21:00,52.0,48.0,-100.00,ENE,61,5.0,8.0,86,-99.99,,,-99.99,,2015-07-06 11:21:00,
2015-07-06 05:44:00,52.0,48.0,-100.00,ENE,61,5.0,8.0,86,-99.99,,,-99.99,,2015-07-06 11:44:00,
2015-07-06 05:54:00,52.0,48.0,-100.00,ENE,61,5.0,8.0,86,-99.99,,,-99.99,,2015-07-06 11:54:00,
2015-07-06 06:03:00,52.0,48.0,-100.00,ENE,61,5.0,8.0,86,-99.99,,,-99.99,,2015-07-06 12:03:00,
2015-07-06 06:13:00,52.0,48.0,-100.00,ENE,61,5.0,8.0,86,-99.99,,,-99.99,,2015-07-06 12:13:00,
2015-07-06 06:21:00,52.0,48.0,-100.00,East,86,4.0,6.0,85,-99.99,,,-99.99,,2015-07-06 12:21:00,
2015-07-06 06:44:00,52.0,48.0,-100.00,East,86,4.0,6.0,85,-99.99,,,-99.99,,2015-07-06 12:44:00,
2015-07-06 06:54:00,52.0,48.0,-100.00,East,86,4.0,6.0,85,-99.99,,,-99.99,,2015-07-06 12:54:00,
2015-07-06 07:03:00,52.0,48.0,-100.00,East,86,4.0,6.0,85,-99.99,,,-99.99,,2015-07-06 13:03:00,
2015-07-06 07:13:00,52.0,48.0,-100.00,East,86,4.0,6.0,85,-99.99,,,-99.99,,2015-07-06 13:13:00,
2015-07-06 07:21:00,53.0,49.0,-100.00,East,84,7.0,9.0,85,-99.99,,,-99.99,,2015-07-06 13:21:00,
2015-07-06 07:44:00,53.0,49.0,-100.00,East,84,7.0,9.0,85,-99.99,,,-99.99,,2015-07-06 13:44:00,
2015-07-06 07:54:00,53.0,49.0,-100.00,East,84,7.0,9.0,85,-99.99,,,-99.99,,2015-07-06 13:54:00,
2015-07-06 08:03:00,53.0,49.0,-100.00,East,84,7.0,9.0,85,-99.99,,,-99.99,,2015-07-06 14:03:00,
2015-07-06 08:12:00,53.0,49.0,-100.00,East,84,7.0,9.0,85,-99.99,,,-99.99,,2015-07-06 14:12:00,
2015-07-06 08:21:00,55.0,50.0,-100.00,East,85,6.0,11.0,82,-99.99,,,-99.99,,2015-07-06 14:21:00,
2015-07-06 08:44:00,55.0,50.0,-100.00,East,85,6.0,11.0,82,-99.99,,,-99.99,,2015-07-06 14:44:00,
2015-07-06 08:53:00,55.0,50.0,-100.00,East,85,6.0,11.0,82,-99.99,,,-99.99,,2015-07-06 14:53:00,
2015-07-06 09:03:00,55.0,50.0,-100.00,East,85,6.0,11.0,82,-99.99,,,-99.99,,2015-07-06 15:03:00,
2015-07-06 09:13:00,55.0,50.0,-100.00,East,85,6.0,11.0,82,-99.99,,,-99.99,,2015-07-06 15:13:00,
2015-07-06 09:21:00,54.0,49.0,-100.00,East,97,5.0,9.0,82,-99.99,,,-99.99,,2015-07-06 15:21:00,
2015-07-06 09:44:00,54.0,49.0,-100.00,East,97,5.0,9.0,82,-99.99,,,-99.99,,2015-07-06 15:44:00,
2015-07-06 09:54:00,54.0,49.0,-100.00,East,97,5.0,9.0,82,-99.99,,,-99.99,,2015-07-06 15:54:00,
2015-07-06 10:03:00,54.0,49.0,-100.00,East,97,5.0,9.0,82,-99.99,,,-99.99,,2015-07-06 16:03:00,
2015-07-06 10:13:00,54.0,49.0,-100.00,East,97,5.0,9.0,82,-99.99,,,-99.99,,2015-07-06 16:13:00,
2015-07-06 10:21:00,59.0,52.0,-100.00,SE,129,8.0,11.0,77,-99.99,,,-99.99,,2015-07-06 16:21:00,
2015-07-06 10:44:00,59.0,52.0,-100.00,SE,129,8.0,11.0,77,-99.99,,,-99.99,,2015-07-06 16:44:00,
2015-07-06 10:54:00,59.0,52.0,-100.00,SE,129,8.0,11.0,77,-99.99,,,-99.99,,2015-07-06 16:54:00,
2015-07-06 11:04:00,59.0,52.0,-100.00,SE,129,8.0,11.0,77,-99.99,,,-99.99,,2015-07-06 17:04:00,
2015-07-06 11:14:00,59.0,52.0,-100.00,SE,129,8.0,-999.0,77,-99.99,,,-99.99,,2015-07-06 17:14:00,
2015-07-06 11:21:00,62.0,50.0,-100.00,SE,130,7.0,14.0,64,-99.99,,,-99.99,,2015-07-06 17:21:00,
2015-07-06 11:44:00,62.0,50.0,-100.00,SE,130,7.0,14.0,64,-99.99,,,-99.99,,2015-07-06 17:44:00,
2015-07-06 11:54:00,62.0,50.0,-100.00,SE,130,7.0,14.0,64,-99.99,,,-99.99,,2015-07-06 17:54:00,
2015-07-06 12:04:00,62.0,50.0,-100.00,SE,130,7.0,14.0,64,-99.99,,,-99.99,,2015-07-06 18:04:00,
2015-07-06 12:13:00,62.0,50.0,-100.00,SE,130,7.0,14.0,64,-99.99,,,-99.99,,2015-07-06 18:13:00,
2015-07-06 12:21:00,65.0,51.0,-100.00,ESE,116,8.0,14.0,60,-99.99,,,-99.99,,2015-07-06 18:21:00,
2015-07-06 12:44:00,65.0,51.0,-100.00,ESE,116,8.0,14.0,60,-99.99,,,-99.99,,2015-07-06 18:44:00,
2015-07-06 12:54:00,65.0,51.0,-100.00,ESE,116,8.0,14.0,60,-99.99,,,-99.99,,2015-07-06 18:54:00,
2015-07-06 13:03:00,65.0,51.0,-100.00,ESE,116,8.0,14.0,60,-99.99,,,-99.99,,2015-07-06 19:03:00,
2015-07-06 13:13:00,65.0,51.0,-100.00,ESE,116,8.0,14.0,60,-99.99,,,-99.99,,2015-07-06 19:13:00,
2015-07-06 13:21:00,65.0,47.0,-100.00,East,91,7.0,15.0,53,-99.99,,,-99.99,,2015-07-06 19:21:00,
2015-07-06 13:44:00,65.0,47.0,-100.00,East,91,7.0,15.0,53,-99.99,,,-99.99,,2015-07-06 19:44:00,
2015-07-06 13:54:00,65.0,47.0,-100.00,East,91,7.0,15.0,53,-99.99,,,-99.99,,2015-07-06 19:54:00,
2015-07-06 14:04:00,65.0,47.0,-100.00,East,91,7.0,15.0,53,-99.99,,,-99.99,,2015-07-06 20:04:00,
2015-07-06 14:13:00,65.0,47.0,-100.00,East,91,7.0,15.0,53,-99.99,,,-99.99,,2015-07-06 20:13:00,
2015-07-06 14:21:00,69.0,50.0,-100.00,ESE,110,7.0,14.0,51,-99.99,,,-99.99,,2015-07-06 20:21:00,
2015-07-06 14:44:00,69.0,50.0,-100.00,ESE,110,7.0,14.0,51,-99.99,,,-99.99,,2015-07-06 20:44:00,
2015-07-06 14:54:00,69.0,50.0,-100.00,ESE,110,7.0,14.0,51,-99.99,,,-99.99,,2015-07-06 20:54:00,
2015-07-06 15:03:00,69.0,50.0,-100.00,ESE,110,7.0,14.0,51,-99.99,,,-99.99,,2015-07-06 21:03:00,
2015-07-06 15:13:00,69.0,50.0,-100.00,ESE,110,7.0,14.0,51,-99.99,,,-99.99,,2015-07-06 21:13:00,
2015-07-06 15:44:00,70.0,48.0,-100.00,ENE,67,8.0,14.0,46,-99.99,,,-99.99,,2015-07-06 21:44:00,
2015-07-06 15:55:00,70.0,48.0,-100.00,ENE,67,8.0,14.0,46,-99.99,,,-99.99,,2015-07-06 21:55:00,
2015-07-06 16:03:00,70.0,48.0,-100.00,ENE,67,8.0,14.0,46,-99.99,,,-99.99,,2015-07-06 22:03:00,
2015-07-06 16:13:00,70.0,48.0,-100.00,ENE,67,8.0,14.0,46,-99.99,,,-99.99,,2015-07-06 22:13:00,
2015-07-06 16:21:00,73.0,49.0,-100.00,ENE,76,9.0,16.0,42,-99.99,,,-99.99,,2015-07-06 22:21:00,
2015-07-06 16:44:00,73.0,49.0,-100.00,ENE,76,9.0,16.0,42,-99.99,,,-99.99,,2015-07-06 22:44:00,
2015-07-06 17:03:00,73.0,49.0,-100.00,ENE,76,9.0,16.0,42,-99.99,,,-99.99,,2015-07-06 23:03:00,
2015-07-06 17:13:00,73.0,49.0,-100.00,ENE,76,9.0,16.0,42,-99.99,,,-99.99,,2015-07-06 23:13:00,
2015-07-06 17:21:00,72.0,47.0,-100.00,ESE,116,11.0,18.0,41,-99.99,,,-99.99,,2015-07-06 23:21:00,
2015-07-06 17:44:00,72.0,47.0,-100.00,ESE,116,11.0,18.0,41,-99.99,,,-99.99,,2015-07-06 23:44:00,
2015-07-06 17:54:00,72.0,47.0,-100.00,ESE,116,11.0,18.0,41,-99.99,,,-99.99,,2015-07-06 23:54:00,
2015-07-06 18:03:00,72.0,47.0,-100.00,ESE,116,11.0,18.0,41,-99.99,,,-99.99,,2015-07-07 00:03:00,